Weather History for KEPH - November, 2013

Change the Weather History Date:

Tuesday, November 5, 2013

  Actual Average Record
Temperature  
Mean Temperature 35 °F 41 °F  
Max Temperature 37 °F 51 °F 65 °F (2012)
Min Temperature 32 °F 32 °F 10 °F (1973)
Degree Days  
Heating Degree Days 30 24  
Month to date heating degree days 112 114  
Since 1 July heating degree days 680 695  
Cooling Degree Days 0 0  
Month to date cooling degree days 0 0  
Year to date cooling degree days 1084 772  
Moisture  
Dew Point 31 °F    
Average Humidity 85    
Maximum Humidity 100    
Minimum Humidity 69    
Precipitation  
Precipitation 0.05 in 0.04 in 0.82 in (1998)
Month to date precipitation 0.38 0.15  
Year to date precipitation 5.49 5.70  
Sea Level Pressure  
Sea Level Pressure 30.16 in    
Wind  
Wind Speed 5 mph (North)    
Max Wind Speed 8 mph    
Max Gust Speed 10 mph    
Visibility 5 miles    
Events Snow    
T = Trace of Precipitation, MM = Missing Value Source: NWS Daily Summary

Daily Weather History Graph

Daily Weather History Graph

Search for Another Location

Airport or City:

Trip Planner

Search our weather history database for the weather conditions in past years. The results will help you decide how hot, cold, wet, or windy it might be!

Date:

Astronomy

Nov. 05, 2013 Rise Set
Actual Time 6:47 AM PST 4:34 PM PST
Civil Twilight 6:15 AM PST 5:07 PM PST
Nautical Twilight 5:39 AM PST 5:43 PM PST
Astronomical Twilight 5:03 AM PST 6:19 PM PST
Moon 9:14 AM PST (11/5) 6:35 PM PST (11/5)
Length of Visible Light 10h 51m
Length of Day
9h 46m
Waxing Crescent, 7% of the Moon is Illuminated
Nov 5
Waxing Crescent
Nov 9
First Quarter
Nov 17
Full
Nov 25
Last Quarter
Dec 2
New

Hourly Weather History & Observations

Time (PST) Temp. Windchill Dew Point Humidity Pressure Visibility Wind Dir Wind Speed Gust Speed Precip Events Conditions
12:53 AM 34.0 °F 29.8 °F 25.0 °F 70% 30.17 in 10.0 mi NNE 4.6 mph - N/A   Overcast
1:53 AM 34.0 °F 28.8 °F 25.0 °F 70% 30.17 in 10.0 mi NNE 5.8 mph - N/A   Overcast
2:53 AM 35.1 °F 30.1 °F 26.1 °F 70% 30.15 in 10.0 mi North 5.8 mph - N/A   Overcast
3:35 AM 33.8 °F 27.7 °F 26.6 °F 75% 30.13 in 3.0 mi NNE 6.9 mph - 0.00 in Snow Light Snow
3:51 AM 33.8 °F 28.6 °F 28.4 °F 81% 30.13 in 1.8 mi NNE 5.8 mph - 0.00 in Snow Light Snow
3:53 AM 33.1 °F 27.7 °F 28.9 °F 85% 30.17 in 1.2 mi NNE 5.8 mph - 0.00 in Snow Light Snow
4:02 AM 33.8 °F 29.6 °F 30.2 °F 87% 30.14 in 0.8 mi North 4.6 mph - 0.01 in Snow Light Snow
4:10 AM 32.0 °F 26.4 °F 30.2 °F 93% 30.14 in 1.2 mi North 5.8 mph - 0.01 in Snow Light Snow
4:21 AM 32.0 °F 26.4 °F 30.2 °F 93% 30.14 in 2.5 mi North 5.8 mph - 0.01 in Snow Light Snow
4:27 AM 32.0 °F 26.4 °F 30.2 °F 93% 30.13 in 1.8 mi NNE 5.8 mph - 0.01 in Snow Light Snow
4:43 AM 32.0 °F 26.4 °F 30.2 °F 93% 30.14 in 2.5 mi NNE 5.8 mph - 0.01 in Snow Light Snow
4:51 AM 32.0 °F 25.6 °F 30.2 °F 93% 30.14 in 2.0 mi NNE 6.9 mph - 0.01 in Snow Light Snow
4:53 AM 32.0 °F 26.4 °F 30.9 °F 96% 30.17 in 2.0 mi NNE 5.8 mph - 0.01 in Snow Light Snow
5:01 AM 32.0 °F 26.4 °F 30.2 °F 93% 30.14 in 1.5 mi NNE 5.8 mph - 0.00 in Snow Light Snow
5:33 AM 32.0 °F 26.4 °F 30.2 °F 93% 30.13 in 1.2 mi NNE 5.8 mph - 0.01 in Snow Light Snow
5:44 AM 32.0 °F 26.4 °F 30.2 °F 93% 30.13 in 1.5 mi North 5.8 mph - 0.02 in Snow Light Snow
5:53 AM 32.0 °F 25.6 °F 30.0 °F 92% 30.17 in 1.5 mi NNE 6.9 mph - 0.02 in Snow Light Snow
6:53 AM 32.0 °F 27.5 °F 30.9 °F 96% 30.16 in 1.5 mi NNE 4.6 mph - 0.01 in Snow Light Snow
7:53 AM 32.0 °F 27.5 °F 30.9 °F 96% 30.18 in 2.5 mi NNE 4.6 mph - 0.01 in   Overcast
8:17 AM 33.8 °F 28.6 °F 30.2 °F 87% 30.14 in 4.0 mi North 5.8 mph - N/A   Overcast
8:53 AM 33.1 °F 26.9 °F 30.9 °F 92% 30.18 in 3.0 mi North 6.9 mph - N/A   Overcast
9:13 AM 33.8 °F 28.6 °F 32.0 °F 93% 30.14 in 2.5 mi North 5.8 mph - N/A   Overcast
9:49 AM 33.8 °F 28.6 °F 32.0 °F 93% 30.14 in 3.0 mi North 5.8 mph - 0.00 in   Overcast
9:53 AM 33.1 °F 28.7 °F 32.0 °F 96% 30.18 in 3.0 mi North 4.6 mph - 0.00 in   Overcast
10:44 AM 33.8 °F 27.7 °F 33.8 °F 100% 30.14 in 2.5 mi North 6.9 mph - N/A   Overcast
10:53 AM 34.0 °F 28.0 °F 33.1 °F 96% 30.17 in 3.0 mi NNE 6.9 mph - N/A   Overcast
11:53 AM 35.1 °F 30.1 °F 34.0 °F 96% 30.15 in 4.0 mi NNE 5.8 mph - N/A   Overcast
12:53 PM 36.0 °F 31.1 °F 34.0 °F 93% 30.15 in 10.0 mi NNE 5.8 mph - N/A   Overcast
1:53 PM 37.0 °F 33.3 °F 34.0 °F 89% 30.14 in 10.0 mi North 4.6 mph - N/A   Overcast
2:53 PM 37.0 °F 33.3 °F 34.0 °F 89% 30.14 in 10.0 mi North 4.6 mph - N/A   Overcast
3:53 PM 37.0 °F 33.3 °F 34.0 °F 89% 30.14 in 10.0 mi North 4.6 mph - N/A   Overcast
4:53 PM 37.0 °F 34.5 °F 34.0 °F 89% 30.14 in 10.0 mi North 3.5 mph - N/A   Overcast
5:46 PM 37.4 °F - 33.8 °F 87% 30.13 in 10.0 mi Calm Calm - N/A   Overcast
5:53 PM 37.0 °F - 34.0 °F 89% 30.17 in 10.0 mi Calm Calm - N/A   Overcast
6:53 PM 37.0 °F - 34.0 °F 89% 30.17 in 10.0 mi Calm Calm - N/A   Overcast
7:53 PM 37.0 °F 33.3 °F 33.1 °F 86% 30.18 in 10.0 mi NNW 4.6 mph - N/A   Overcast
8:53 PM 36.0 °F 31.1 °F 32.0 °F 86% 30.20 in 10.0 mi North 5.8 mph - N/A   Overcast
9:53 PM 36.0 °F 32.1 °F 33.1 °F 89% 30.22 in 10.0 mi North 4.6 mph - N/A   Overcast
10:53 PM 36.0 °F 32.1 °F 32.0 °F 86% 30.23 in 10.0 mi NNW 4.6 mph - N/A   Overcast
11:53 PM 36.0 °F 33.3 °F 32.0 °F 86% 30.25 in 10.0 mi NNW 3.5 mph - N/A   Overcast